Regional Weather Roundup
Issued by NWS

Home | Current Version | Previous Version | Text Only | Print | Product List | Glossary On
Versions: 1 2 3 4 5 6 7 8 9 10 11 12 13 14 15 16 17 18 19 20 21 22 23 24 25 26 27 28 29 30 31 32 33 34 35 36 37 38 39 40 41 42 43 44 45 46 47 48 49 50
000
ASUS44 KBMX 270410
RWRAL

ALABAMA REGIONAL WEATHER ROUNDUP
NATIONAL WEATHER SERVICE BIRMINGHAM AL
1100 PM CDT TUE MAY 26 2015

NOTE: "FAIR" INDICATES FEW OR NO CLOUDS BELOW 12,000 FEET
WITH NO SIGNIFICANT WEATHER AND/OR OBSTRUCTIONS TO VISIBILITY.

THE REMARK "TC" DENOTES TEMPERATURE IN DEGREES CELSIUS.

ALZ001>011-014-016>018-020-270500-
NORTH ALABAMA

CITY           SKY/WX    TMP DP  RH WIND       PRES   REMARKS
MUSCLE SHOALS  PTCLDY    71  66  84 S6        30.15R
HUNTSVILLE     MOCLDY    71  66  84 S6        30.17R
DECATUR        MOCLDY    70  67  90 S9        30.17R
HALEYVILLE     MOCLDY    70  70 100 CALM      30.19R
GADSDEN        CLOUDY   N/A N/A N/A CALM      30.19R
$$

ALZ012-013-022-023-030>036-040>044-270500-
WEST CENTRAL ALABAMA

CITY           SKY/WX    TMP DP  RH WIND       PRES   REMARKS
TUSCALOOSA     CLOUDY    73  69  87 SE7       30.16R
$$

ALZ015-024>027-033>036-040>044-270500-
CENTRAL ALABAMA

CITY           SKY/WX    TMP DP  RH WIND       PRES   REMARKS
BIRMINGHAM     MOCLDY    70  67  90 S8        30.20S
MONTGOMERY     PTCLDY    68  65  90 CALM      30.18S
SHELBY CO ARPT CLOUDY    70  68  93 S6        30.19S
MAXWELL AFB    PTCLDY    67  67  97 E2        30.17S
GREENVILLE     NOT AVBL
$$

ALZ019-021-028-029-037-038-045>048-270500-
EAST CENTRAL ALABAMA

CITY           SKY/WX    TMP DP  RH WIND       PRES   REMARKS
ANNISTON       MOCLDY    66  64  93 CALM      30.19F
ALEXANDER CITY MOCLDY    67  64  90 CALM      30.20F
AUBURN         NOT AVBL
$$

ALZ051>064-270500-
SOUTHWEST ALABAMA

CITY           SKY/WX    TMP DP  RH WIND       PRES   REMARKS
MOBILE         CLOUDY    75  73  93 E6        30.14S
BROOKLEY FIELD CLOUDY    77  74  90 E10       30.15R
EVERGREEN      CLOUDY    70  69  97 SE5       30.17S
$$

ALZ049-050-065>069-270500-
SOUTHEAST ALABAMA

CITY           SKY/WX    TMP DP  RH WIND       PRES   REMARKS
DOTHAN         MOCLDY    67  66  97 SE3       30.22S
OZARK          MOCLDY    68  67  96 E2        30.17F
TROY           PTCLDY    67  65  93 CALM      30.18F FOG
EUFAULA        FAIR      68  66  93 CALM      30.18F
$$


USA.gov is the U.S. government's official web portal to all federal, state and local government web resources and services.